Time,TemperatureF,DewpointF,PressureIn,WindDirection,WindDirectionDegrees,WindSpeedMPH,WindSpeedGustMPH,Humidity,HourlyPrecipIn,Conditions,Clouds,dailyrainin,SoftwareType,DateUTC
2013-06-05 00:01:00,56.7,54.4,30.06,SE,136,0.0,2.0,92,0.00,,---,0.00,VWS V14.01,2013-06-05 04:01:00,
2013-06-05 00:02:00,56.7,54.1,30.05,ESE,105,1.0,4.0,91,0.00,,---,0.00,VWS V14.01,2013-06-05 04:02:00,
2013-06-05 00:03:00,56.8,54.2,30.06,SE,126,3.0,4.0,91,0.00,,---,0.00,VWS V14.01,2013-06-05 04:03:00,
2013-06-05 00:08:00,57.4,54.5,30.05,ESE,103,3.0,5.0,90,0.00,,---,0.00,VWS V14.01,2013-06-05 04:08:00,
2013-06-05 00:13:00,57.9,54.7,30.05,ESE,113,3.0,5.0,89,0.00,,---,0.00,VWS V14.01,2013-06-05 04:13:00,
2013-06-05 00:18:00,58.2,54.7,30.05,East,96,2.0,5.0,88,0.00,,---,0.00,VWS V14.01,2013-06-05 04:18:00,
2013-06-05 00:23:00,58.4,54.9,30.05,ESE,113,4.0,6.0,88,0.00,,---,0.00,VWS V14.01,2013-06-05 04:23:00,
2013-06-05 00:28:00,58.4,54.5,30.05,ESE,122,3.0,6.0,87,0.00,,---,0.00,VWS V14.01,2013-06-05 04:28:00,
2013-06-05 00:33:00,58.5,54.7,30.05,ESE,122,2.0,5.0,87,0.00,,---,0.00,VWS V14.01,2013-06-05 04:33:00,
2013-06-05 00:38:00,58.6,54.8,30.05,ESE,110,2.0,6.0,87,0.00,,---,0.00,VWS V14.01,2013-06-05 04:38:00,
2013-06-05 00:43:00,58.5,54.7,30.05,ENE,70,3.0,8.0,87,0.00,,---,0.00,VWS V14.01,2013-06-05 04:43:00,
2013-06-05 00:48:00,58.4,54.5,30.05,East,91,4.0,8.0,87,0.00,,---,0.00,VWS V14.01,2013-06-05 04:48:00,
2013-06-05 00:54:00,58.4,54.5,30.05,ESE,113,3.0,8.0,87,0.00,,---,0.00,VWS V14.01,2013-06-05 04:54:00,
2013-06-05 00:59:00,58.4,54.9,30.05,ESE,116,2.0,8.0,88,0.00,,---,0.00,VWS V14.01,2013-06-05 04:59:00,
2013-06-05 01:04:00,58.5,55.3,30.04,SE,124,6.0,7.0,89,0.00,,---,0.00,VWS V14.01,2013-06-05 05:04:00,
2013-06-05 01:09:00,58.7,55.8,30.04,ESE,108,5.0,9.0,90,0.00,,---,0.00,VWS V14.01,2013-06-05 05:09:00,
2013-06-05 01:14:00,58.8,55.9,30.05,SE,129,2.0,9.0,90,0.00,,---,0.00,VWS V14.01,2013-06-05 05:14:00,
2013-06-05 01:19:00,59.0,56.4,30.04,ESE,118,6.0,10.0,91,0.00,,---,0.00,VWS V14.01,2013-06-05 05:19:00,
2013-06-05 01:24:00,58.9,56.6,30.04,East,86,5.0,11.0,92,0.00,,---,0.00,VWS V14.01,2013-06-05 05:24:00,
2013-06-05 01:29:00,59.0,56.7,30.04,SE,132,7.0,11.0,92,0.00,,---,0.00,VWS V14.01,2013-06-05 05:29:00,
2013-06-05 01:34:00,59.1,57.1,30.04,SE,139,4.0,11.0,93,0.00,,---,0.00,VWS V14.01,2013-06-05 05:34:00,
2013-06-05 01:39:00,59.2,57.2,30.04,East,96,4.0,12.0,93,0.00,,---,0.00,VWS V14.01,2013-06-05 05:39:00,
2013-06-05 01:44:00,59.2,57.5,30.04,SE,128,4.0,12.0,94,0.00,,---,0.00,VWS V14.01,2013-06-05 05:44:00,
2013-06-05 01:49:00,59.2,57.5,30.04,SE,141,7.0,12.0,94,0.00,,---,0.00,VWS V14.01,2013-06-05 05:49:00,
2013-06-05 01:55:00,59.4,57.7,30.04,ESE,120,4.0,12.0,94,0.00,,---,0.00,VWS V14.01,2013-06-05 05:55:00,
2013-06-05 02:00:00,59.3,57.6,30.04,SE,132,5.0,6.0,94,0.00,,---,0.00,VWS V14.01,2013-06-05 06:00:00,
2013-06-05 02:05:00,59.3,57.6,30.04,ESE,120,7.0,10.0,94,0.00,,---,0.00,VWS V14.01,2013-06-05 06:05:00,
2013-06-05 02:10:00,59.4,57.7,30.04,ESE,122,6.0,11.0,94,0.00,,---,0.00,VWS V14.01,2013-06-05 06:10:00,
2013-06-05 02:15:00,59.4,57.7,30.03,ESE,107,7.0,11.0,94,0.00,,---,0.00,VWS V14.01,2013-06-05 06:15:00,
2013-06-05 02:20:00,59.3,57.6,30.04,SE,140,5.0,11.0,94,0.00,,---,0.00,VWS V14.01,2013-06-05 06:20:00,
2013-06-05 02:25:00,59.1,57.7,30.03,SE,135,6.0,11.0,95,0.00,,---,0.00,VWS V14.01,2013-06-05 06:25:00,
2013-06-05 02:30:00,59.3,57.9,30.03,SE,124,7.0,11.0,95,0.00,,---,0.00,VWS V14.01,2013-06-05 06:30:00,
2013-06-05 02:35:00,59.3,57.6,30.03,ESE,116,7.0,11.0,94,0.00,,---,0.00,VWS V14.01,2013-06-05 06:35:00,
2013-06-05 02:40:00,59.2,57.5,30.03,East,101,10.0,11.0,94,0.00,,---,0.00,VWS V14.01,2013-06-05 06:40:00,
2013-06-05 02:45:00,59.2,57.5,30.03,ESE,118,5.0,11.0,94,0.00,,---,0.00,VWS V14.01,2013-06-05 06:45:00,
2013-06-05 02:50:00,59.1,57.4,30.03,SSE,155,4.0,11.0,94,0.00,,---,0.00,VWS V14.01,2013-06-05 06:50:00,
2013-06-05 02:55:00,58.9,57.2,30.02,SE,138,5.0,11.0,94,0.00,,---,0.00,VWS V14.01,2013-06-05 06:55:00,
2013-06-05 03:00:00,58.8,57.4,30.02,SE,139,2.0,9.0,95,0.00,,---,0.00,VWS V14.01,2013-06-05 07:00:00,
2013-06-05 03:05:00,58.9,57.5,30.02,ESE,113,6.0,10.0,95,0.00,,---,0.00,VWS V14.01,2013-06-05 07:05:00,
2013-06-05 03:10:00,58.8,57.1,30.02,ESE,122,6.0,10.0,94,0.00,,---,0.00,VWS V14.01,2013-06-05 07:10:00,
2013-06-05 03:15:00,58.7,57.0,30.03,SE,132,6.0,10.0,94,0.00,,---,0.00,VWS V14.01,2013-06-05 07:15:00,
2013-06-05 03:20:00,58.6,56.9,30.02,East,100,6.0,10.0,94,0.00,,---,0.00,VWS V14.01,2013-06-05 07:20:00,
2013-06-05 03:26:00,58.5,57.1,30.02,ESE,118,4.0,10.0,95,0.00,,---,0.00,VWS V14.01,2013-06-05 07:26:00,
2013-06-05 03:31:00,58.3,56.9,30.02,ESE,113,5.0,6.0,95,0.00,,---,0.00,VWS V14.01,2013-06-05 07:31:00,
2013-06-05 03:36:00,58.3,56.9,30.02,SE,125,6.0,9.0,95,0.00,,---,0.00,VWS V14.01,2013-06-05 07:36:00,
2013-06-05 03:41:00,58.3,56.9,30.02,East,91,7.0,9.0,95,0.00,,---,0.00,VWS V14.01,2013-06-05 07:41:00,
2013-06-05 03:46:00,58.2,56.5,30.03,SE,132,5.0,9.0,94,0.00,,---,0.00,VWS V14.01,2013-06-05 07:46:00,
2013-06-05 03:51:00,58.2,56.5,30.03,SE,128,6.0,10.0,94,0.00,,---,0.00,VWS V14.01,2013-06-05 07:51:00,
2013-06-05 03:57:00,58.0,56.3,30.03,SE,132,5.0,10.0,94,0.00,,---,0.00,VWS V14.01,2013-06-05 07:57:00,
2013-06-05 04:02:00,58.0,56.6,30.03,ESE,111,5.0,8.0,95,0.00,,---,0.00,VWS V14.01,2013-06-05 08:02:00,
2013-06-05 04:07:00,58.0,56.3,30.03,ESE,113,7.0,8.0,94,0.00,,---,0.00,VWS V14.01,2013-06-05 08:07:00,
2013-06-05 04:12:00,58.0,56.3,30.03,SE,135,5.0,9.0,94,0.00,,---,0.00,VWS V14.01,2013-06-05 08:12:00,
2013-06-05 04:17:00,58.0,56.3,30.03,SE,129,4.0,9.0,94,0.00,,---,0.00,VWS V14.01,2013-06-05 08:17:00,
2013-06-05 04:22:00,58.0,56.3,30.03,ESE,104,7.0,9.0,94,0.00,,---,0.00,VWS V14.01,2013-06-05 08:22:00,
2013-06-05 04:27:00,57.9,56.2,30.03,ESE,105,7.0,10.0,94,0.00,,---,0.00,VWS V14.01,2013-06-05 08:27:00,
2013-06-05 04:32:00,58.0,56.3,30.03,ESE,122,5.0,9.0,94,0.00,,---,0.00,VWS V14.01,2013-06-05 08:32:00,
2013-06-05 04:37:00,58.1,56.1,30.03,ESE,122,5.0,9.0,93,0.00,,---,0.00,VWS V14.01,2013-06-05 08:37:00,
2013-06-05 04:42:00,58.1,56.1,30.03,ESE,105,4.0,9.0,93,0.00,,---,0.00,VWS V14.01,2013-06-05 08:42:00,
2013-06-05 04:47:00,58.0,56.0,30.04,SE,139,6.0,9.0,93,0.00,,---,0.00,VWS V14.01,2013-06-05 08:47:00,
2013-06-05 04:52:00,58.1,56.1,30.03,ESE,122,4.0,9.0,93,0.00,,---,0.00,VWS V14.01,2013-06-05 08:52:00,
2013-06-05 04:58:00,58.1,56.1,30.04,SE,126,6.0,9.0,93,0.00,,---,0.00,VWS V14.01,2013-06-05 08:58:00,
2013-06-05 05:03:00,58.1,56.1,30.04,ESE,114,5.0,9.0,93,0.00,,---,0.00,VWS V14.01,2013-06-05 09:03:00,
2013-06-05 05:08:00,58.0,56.0,30.04,SE,129,5.0,9.0,93,0.00,,---,0.00,VWS V14.01,2013-06-05 09:08:00,
2013-06-05 05:13:00,58.1,56.1,30.04,SSE,155,4.0,10.0,93,0.00,,---,0.00,VWS V14.01,2013-06-05 09:13:00,
2013-06-05 05:18:00,58.0,56.0,30.04,ESE,119,7.0,10.0,93,0.00,,---,0.00,VWS V14.01,2013-06-05 09:18:00,
2013-06-05 05:23:00,57.9,55.9,30.04,SE,124,4.0,10.0,93,0.00,,---,0.00,VWS V14.01,2013-06-05 09:23:00,
2013-06-05 05:28:00,57.9,56.2,30.04,ESE,122,5.0,10.0,94,0.00,,---,0.00,VWS V14.01,2013-06-05 09:28:00,
2013-06-05 05:33:00,57.8,56.1,30.04,ESE,115,6.0,8.0,94,0.00,,---,0.00,VWS V14.01,2013-06-05 09:33:00,
2013-06-05 05:38:00,57.7,56.0,30.04,ESE,105,6.0,10.0,94,0.00,,---,0.00,VWS V14.01,2013-06-05 09:38:00,
2013-06-05 05:43:00,57.7,56.0,30.04,SE,135,4.0,10.0,94,0.00,,---,0.00,VWS V14.01,2013-06-05 09:43:00,
2013-06-05 05:48:00,57.6,56.2,30.05,SE,136,4.0,10.0,95,0.00,,---,0.00,VWS V14.01,2013-06-05 09:48:00,
2013-06-05 05:53:00,57.7,56.3,30.04,ESE,120,3.0,11.0,95,0.00,,---,0.00,VWS V14.01,2013-06-05 09:53:00,
2013-06-05 05:59:00,57.7,56.3,30.04,ESE,108,4.0,11.0,95,0.00,,---,0.00,VWS V14.01,2013-06-05 09:59:00,
2013-06-05 06:04:00,57.6,56.2,30.04,ESE,116,5.0,9.0,95,0.00,,---,0.00,VWS V14.01,2013-06-05 10:04:00,
2013-06-05 06:09:00,57.5,56.1,30.05,SE,129,6.0,9.0,95,0.00,,---,0.00,VWS V14.01,2013-06-05 10:09:00,
2013-06-05 06:14:00,57.5,56.1,30.05,SSE,160,3.0,9.0,95,0.00,,---,0.00,VWS V14.01,2013-06-05 10:14:00,
2013-06-05 06:19:00,57.5,56.1,30.05,SE,127,4.0,9.0,95,0.00,,---,0.00,VWS V14.01,2013-06-05 10:19:00,
2013-06-05 06:24:00,57.4,56.3,30.05,ENE,75,3.0,11.0,96,0.00,,---,0.00,VWS V14.01,2013-06-05 10:24:00,
2013-06-05 06:29:00,57.4,56.3,30.05,ESE,107,3.0,11.0,96,0.00,,---,0.00,VWS V14.01,2013-06-05 10:29:00,
2013-06-05 06:34:00,57.4,56.3,30.05,ESE,116,4.0,9.0,96,0.00,,---,0.00,VWS V14.01,2013-06-05 10:34:00,
2013-06-05 06:39:00,57.4,56.3,30.06,ESE,118,5.0,10.0,96,0.00,,---,0.00,VWS V14.01,2013-06-05 10:39:00,
2013-06-05 06:44:00,57.4,56.3,30.06,SE,132,6.0,10.0,96,0.00,,---,0.00,VWS V14.01,2013-06-05 10:44:00,
2013-06-05 06:49:00,57.4,56.3,30.06,ENE,68,4.0,10.0,96,0.00,,---,0.00,VWS V14.01,2013-06-05 10:49:00,
2013-06-05 06:54:00,57.4,56.3,30.05,SE,136,3.0,10.0,96,0.00,,---,0.00,VWS V14.01,2013-06-05 10:54:00,
2013-06-05 06:59:00,57.4,56.6,30.05,ESE,122,1.0,10.0,97,0.00,,---,0.00,VWS V14.01,2013-06-05 10:59:00,
2013-06-05 07:04:00,57.5,56.7,30.06,SE,136,6.0,7.0,97,0.00,,---,0.00,VWS V14.01,2013-06-05 11:04:00,
2013-06-05 07:09:00,57.7,56.9,30.05,ESE,122,5.0,8.0,97,0.00,,---,0.00,VWS V14.01,2013-06-05 11:09:00,
2013-06-05 07:14:00,58.0,56.9,30.06,East,81,6.0,10.0,96,0.00,,---,0.00,VWS V14.01,2013-06-05 11:14:00,
2013-06-05 07:19:00,58.1,57.0,30.05,ESE,110,6.0,10.0,96,0.00,,---,0.00,VWS V14.01,2013-06-05 11:19:00,
2013-06-05 07:25:00,58.2,57.1,30.05,SE,132,7.0,10.0,96,0.00,,---,0.00,VWS V14.01,2013-06-05 11:25:00,
2013-06-05 07:30:00,58.3,57.2,30.05,SE,128,7.0,8.0,96,0.00,,---,0.00,VWS V14.01,2013-06-05 11:30:00,
2013-06-05 07:35:00,58.6,57.5,30.05,ESE,115,9.0,9.0,96,0.00,,---,0.00,VWS V14.01,2013-06-05 11:35:00,
2013-06-05 07:40:00,59.0,57.6,30.06,ESE,108,7.0,11.0,95,0.00,,---,0.00,VWS V14.01,2013-06-05 11:40:00,
2013-06-05 07:45:00,59.2,57.5,30.05,ESE,107,9.0,11.0,94,0.00,,---,0.00,VWS V14.01,2013-06-05 11:45:00,
2013-06-05 07:50:00,59.5,57.8,30.06,ENE,76,6.0,11.0,94,0.00,,---,0.00,VWS V14.01,2013-06-05 11:50:00,
2013-06-05 07:55:00,59.7,58.0,30.05,ESE,115,5.0,11.0,94,0.00,,---,0.00,VWS V14.01,2013-06-05 11:55:00,
2013-06-05 08:00:00,59.9,58.2,30.06,ESE,107,3.0,7.0,94,0.00,,---,0.00,VWS V14.01,2013-06-05 12:00:00,
2013-06-05 08:05:00,60.1,58.4,30.06,ESE,117,6.0,8.0,94,0.00,,---,0.00,VWS V14.01,2013-06-05 12:05:00,
2013-06-05 08:10:00,60.7,58.7,30.06,SE,132,5.0,10.0,93,0.00,,---,0.00,VWS V14.01,2013-06-05 12:10:00,
2013-06-05 08:15:00,61.3,59.0,30.06,East,95,5.0,10.0,92,0.00,,---,0.00,VWS V14.01,2013-06-05 12:15:00,
2013-06-05 08:20:00,61.4,58.8,30.06,ENE,71,4.0,11.0,91,0.00,,---,0.00,VWS V14.01,2013-06-05 12:20:00,
2013-06-05 08:25:00,61.6,59.0,30.06,SE,126,6.0,11.0,91,0.00,,---,0.00,VWS V14.01,2013-06-05 12:25:00,
2013-06-05 08:30:00,62.0,59.3,30.06,ESE,107,6.0,10.0,91,0.00,,---,0.00,VWS V14.01,2013-06-05 12:30:00,
2013-06-05 08:35:00,62.0,59.0,30.06,ESE,116,4.0,13.0,90,0.00,,---,0.00,VWS V14.01,2013-06-05 12:35:00,
2013-06-05 08:41:00,62.3,59.6,30.06,SE,129,4.0,13.0,91,0.00,,---,0.00,VWS V14.01,2013-06-05 12:41:00,
2013-06-05 08:46:00,62.8,59.8,30.06,SE,134,6.0,13.0,90,0.00,,---,0.00,VWS V14.01,2013-06-05 12:46:00,
2013-06-05 08:51:00,62.9,59.6,30.06,SE,146,5.0,13.0,89,0.00,,---,0.00,VWS V14.01,2013-06-05 12:51:00,
2013-06-05 08:56:00,62.9,59.6,30.06,SE,130,8.0,13.0,89,0.00,,---,0.00,VWS V14.01,2013-06-05 12:56:00,
2013-06-05 09:02:00,62.4,59.1,30.06,East,99,4.0,12.0,89,0.00,,---,0.00,VWS V14.01,2013-06-05 13:02:00,
2013-06-05 09:07:00,62.4,59.4,30.06,ESE,108,10.0,12.0,90,0.00,,---,0.00,VWS V14.01,2013-06-05 13:07:00,
2013-06-05 09:12:00,62.2,59.2,30.06,ENE,77,7.0,12.0,90,0.00,,---,0.00,VWS V14.01,2013-06-05 13:12:00,
2013-06-05 09:17:00,62.6,59.6,30.05,ESE,122,8.0,12.0,90,0.00,,---,0.00,VWS V14.01,2013-06-05 13:17:00,
2013-06-05 09:22:00,63.1,60.1,30.06,ESE,115,6.0,12.0,90,0.00,,---,0.00,VWS V14.01,2013-06-05 13:22:00,
2013-06-05 09:27:00,63.4,60.1,30.05,ESE,110,6.0,14.0,89,0.00,,---,0.00,VWS V14.01,2013-06-05 13:27:00,
2013-06-05 09:32:00,63.7,60.1,30.05,ESE,107,5.0,9.0,88,0.00,,---,0.00,VWS V14.01,2013-06-05 13:32:00,
2013-06-05 09:37:00,64.3,60.3,30.05,East,96,5.0,18.0,87,0.00,,---,0.00,VWS V14.01,2013-06-05 13:37:00,
2013-06-05 09:42:00,64.7,60.8,30.05,SE,143,8.0,18.0,87,0.00,,---,0.00,VWS V14.01,2013-06-05 13:42:00,
2013-06-05 09:47:00,65.4,61.4,30.05,SE,133,11.0,18.0,87,0.00,,---,0.00,VWS V14.01,2013-06-05 13:47:00,
2013-06-05 09:52:00,65.4,60.5,30.05,East,79,8.0,18.0,84,0.00,,---,0.00,VWS V14.01,2013-06-05 13:52:00,
2013-06-05 09:57:00,65.3,61.0,30.05,ENE,70,5.0,18.0,86,0.00,,---,0.00,VWS V14.01,2013-06-05 13:57:00,
2013-06-05 10:02:00,65.3,60.7,30.05,ESE,115,6.0,11.0,85,0.00,,---,0.00,VWS V14.01,2013-06-05 14:02:00,
2013-06-05 10:07:00,65.2,60.2,30.05,ENE,61,7.0,13.0,84,0.00,,---,0.00,VWS V14.01,2013-06-05 14:07:00,
2013-06-05 10:13:00,65.2,60.6,30.05,East,100,9.0,14.0,85,0.00,,---,0.00,VWS V14.01,2013-06-05 14:13:00,
2013-06-05 10:18:00,65.2,60.6,30.04,ESE,108,7.0,15.0,85,0.00,,---,0.00,VWS V14.01,2013-06-05 14:18:00,
2013-06-05 10:23:00,65.0,60.4,30.04,SSE,163,3.0,15.0,85,0.00,,---,0.00,VWS V14.01,2013-06-05 14:23:00,
2013-06-05 10:28:00,65.1,60.5,30.04,ESE,113,9.0,15.0,85,0.00,,---,0.00,VWS V14.01,2013-06-05 14:28:00,
2013-06-05 10:33:00,66.0,61.7,30.03,NE,51,2.0,9.0,86,0.00,,---,0.00,VWS V14.01,2013-06-05 14:33:00,
2013-06-05 10:38:00,66.6,61.6,30.03,ESE,117,7.0,16.0,84,0.00,,---,0.00,VWS V14.01,2013-06-05 14:38:00,
2013-06-05 10:43:00,67.3,62.0,30.03,ESE,110,7.0,16.0,83,0.00,,---,0.00,VWS V14.01,2013-06-05 14:43:00,
2013-06-05 10:48:00,67.9,62.5,30.03,SE,135,6.0,16.0,83,0.00,,---,0.00,VWS V14.01,2013-06-05 14:48:00,
2013-06-05 10:53:00,67.9,61.9,30.03,ESE,110,8.0,16.0,81,0.00,,---,0.00,VWS V14.01,2013-06-05 14:53:00,
2013-06-05 10:58:00,68.3,61.9,30.03,SE,131,6.0,16.0,80,0.00,,---,0.00,VWS V14.01,2013-06-05 14:58:00,
2013-06-05 11:04:00,68.3,62.6,30.03,SE,136,8.0,12.0,82,0.00,,---,0.00,VWS V14.01,2013-06-05 15:04:00,
2013-06-05 11:09:00,68.2,61.8,30.03,SE,135,6.0,16.0,80,0.00,,---,0.00,VWS V14.01,2013-06-05 15:09:00,
2013-06-05 11:14:00,68.8,63.1,30.03,SE,124,7.0,16.0,82,0.00,,---,0.00,VWS V14.01,2013-06-05 15:14:00,
2013-06-05 11:19:00,69.4,63.0,30.03,SE,133,6.0,16.0,80,0.00,,---,0.00,VWS V14.01,2013-06-05 15:19:00,
2013-06-05 11:24:00,69.4,63.3,30.02,ESE,104,7.0,16.0,81,0.00,,---,0.00,VWS V14.01,2013-06-05 15:24:00,
2013-06-05 11:29:00,69.4,63.0,30.02,ENE,78,5.0,16.0,80,0.00,,---,0.00,VWS V14.01,2013-06-05 15:29:00,
2013-06-05 11:34:00,69.4,62.6,30.02,ESE,115,8.0,12.0,79,0.00,,---,0.00,VWS V14.01,2013-06-05 15:34:00,
2013-06-05 11:39:00,69.4,62.6,30.01,ESE,123,6.0,16.0,79,0.00,,---,0.00,VWS V14.01,2013-06-05 15:39:00,
2013-06-05 11:44:00,69.7,62.5,30.02,ESE,107,8.0,16.0,78,0.00,,---,0.00,VWS V14.01,2013-06-05 15:44:00,
2013-06-05 11:49:00,69.8,63.7,30.01,ESE,110,8.0,16.0,81,0.00,,---,0.00,VWS V14.01,2013-06-05 15:49:00,
2013-06-05 11:55:00,70.3,63.1,30.01,SE,132,9.0,16.0,78,0.00,,---,0.00,VWS V14.01,2013-06-05 15:55:00,
2013-06-05 12:00:00,70.2,63.0,30.01,NE,52,5.0,6.0,78,0.00,,---,0.00,VWS V14.01,2013-06-05 16:00:00,
2013-06-05 12:05:00,70.2,63.8,30.01,ESE,115,5.0,13.0,80,0.00,,---,0.00,VWS V14.01,2013-06-05 16:05:00,
2013-06-05 12:10:00,70.5,63.7,30.01,ENE,65,7.0,13.0,79,0.00,,---,0.00,VWS V14.01,2013-06-05 16:10:00,
2013-06-05 12:15:00,70.3,63.5,30.01,SE,129,4.0,13.0,79,0.00,,---,0.00,VWS V14.01,2013-06-05 16:15:00,
2013-06-05 12:20:00,69.7,62.9,30.00,East,100,6.0,13.0,79,0.00,,---,0.00,VWS V14.01,2013-06-05 16:20:00,
2013-06-05 12:25:00,69.3,62.5,30.00,SE,127,5.0,13.0,79,0.00,,---,0.00,VWS V14.01,2013-06-05 16:25:00,
2013-06-05 12:30:00,69.8,63.7,30.00,SSE,147,4.0,5.0,81,0.00,,---,0.00,VWS V14.01,2013-06-05 16:30:00,
2013-06-05 12:35:00,70.5,63.7,30.00,SE,142,7.0,8.0,79,0.00,,---,0.00,VWS V14.01,2013-06-05 16:35:00,
2013-06-05 12:41:00,70.5,63.0,29.99,ESE,107,6.0,8.0,77,0.00,,---,0.00,VWS V14.01,2013-06-05 16:41:00,
2013-06-05 12:46:00,70.5,63.3,29.99,SE,131,5.0,13.0,78,0.00,,---,0.00,VWS V14.01,2013-06-05 16:46:00,
2013-06-05 12:51:00,70.8,63.6,29.99,East,79,6.0,13.0,78,0.00,,---,0.00,VWS V14.01,2013-06-05 16:51:00,
2013-06-05 12:56:00,71.5,63.9,29.99,East,84,7.0,13.0,77,0.00,,---,0.00,VWS V14.01,2013-06-05 16:56:00,
2013-06-05 13:02:00,71.5,63.5,29.99,ESE,120,6.0,12.0,76,0.00,,---,0.00,VWS V14.01,2013-06-05 17:02:00,
2013-06-05 13:07:00,71.6,64.0,29.99,SSE,153,2.0,12.0,77,0.00,,---,0.00,VWS V14.01,2013-06-05 17:07:00,
2013-06-05 13:12:00,72.0,64.4,29.99,ESE,117,12.0,13.0,77,0.00,,---,0.00,VWS V14.01,2013-06-05 17:12:00,
2013-06-05 13:17:00,71.8,63.8,29.99,North,3,6.0,13.0,76,0.00,,---,0.00,VWS V14.01,2013-06-05 17:17:00,
2013-06-05 13:22:00,71.7,63.4,29.99,ENE,61,2.0,13.0,75,0.00,,---,0.00,VWS V14.01,2013-06-05 17:22:00,
2013-06-05 13:27:00,72.1,64.5,29.98,ESE,110,10.0,13.0,77,0.00,,---,0.00,VWS V14.01,2013-06-05 17:27:00,
2013-06-05 13:32:00,72.1,64.1,29.98,SE,139,5.0,15.0,76,0.00,,---,0.00,VWS V14.01,2013-06-05 17:32:00,
2013-06-05 13:37:00,72.2,63.8,29.98,East,86,7.0,15.0,75,0.00,,---,0.00,VWS V14.01,2013-06-05 17:37:00,
2013-06-05 13:42:00,72.2,64.2,29.98,SE,125,11.0,15.0,76,0.00,,---,0.00,VWS V14.01,2013-06-05 17:42:00,
2013-06-05 13:47:00,72.4,64.0,29.98,East,84,8.0,15.0,75,0.00,,---,0.00,VWS V14.01,2013-06-05 17:47:00,
2013-06-05 13:52:00,72.5,64.1,29.98,NE,54,8.0,15.0,75,0.00,,---,0.00,VWS V14.01,2013-06-05 17:52:00,
2013-06-05 13:58:00,72.2,63.5,29.98,SE,139,4.0,15.0,74,0.00,,---,0.00,VWS V14.01,2013-06-05 17:58:00,
2013-06-05 14:03:00,72.2,63.5,29.97,NNE,26,7.0,11.0,74,0.00,,---,0.00,VWS V14.01,2013-06-05 18:03:00,
2013-06-05 14:08:00,72.3,63.9,29.97,SE,125,7.0,13.0,75,0.00,,---,0.00,VWS V14.01,2013-06-05 18:08:00,
2013-06-05 14:13:00,72.1,63.0,29.97,ESE,105,4.0,13.0,73,0.00,,---,0.00,VWS V14.01,2013-06-05 18:13:00,
2013-06-05 14:18:00,72.0,62.9,29.97,ENE,58,8.0,13.0,73,0.00,,---,0.00,VWS V14.01,2013-06-05 18:18:00,
2013-06-05 14:23:00,71.8,63.1,29.98,ESE,121,5.0,14.0,74,0.00,,---,0.00,VWS V14.01,2013-06-05 18:23:00,
2013-06-05 14:28:00,71.5,63.2,29.97,ESE,116,10.0,14.0,75,0.00,,---,0.00,VWS V14.01,2013-06-05 18:28:00,
2013-06-05 14:33:00,71.3,63.0,29.98,East,89,6.0,10.0,75,0.00,,---,0.00,VWS V14.01,2013-06-05 18:33:00,
2013-06-05 14:38:00,71.4,62.3,29.97,SE,144,5.0,12.0,73,0.00,,---,0.00,VWS V14.01,2013-06-05 18:38:00,
2013-06-05 14:43:00,71.6,63.3,29.97,SSE,162,5.0,12.0,75,0.00,,---,0.00,VWS V14.01,2013-06-05 18:43:00,
2013-06-05 14:48:00,72.3,62.4,29.97,ESE,116,6.0,12.0,71,0.00,,---,0.00,VWS V14.01,2013-06-05 18:48:00,
2013-06-05 14:53:00,73.2,64.0,29.97,SE,129,6.0,12.0,73,0.00,,---,0.00,VWS V14.01,2013-06-05 18:53:00,
2013-06-05 14:59:00,74.5,63.7,29.96,WSW,239,5.0,12.0,69,0.00,,---,0.00,VWS V14.01,2013-06-05 18:59:00,
2013-06-05 15:04:00,74.3,62.2,29.96,ESE,104,3.0,14.0,66,0.00,,---,0.00,VWS V14.01,2013-06-05 19:04:00,
2013-06-05 15:09:00,73.6,62.0,29.96,ENE,57,7.0,14.0,67,0.00,,---,0.00,VWS V14.01,2013-06-05 19:09:00,
2013-06-05 15:14:00,73.0,61.8,29.95,ENE,78,9.0,15.0,68,0.00,,---,0.00,VWS V14.01,2013-06-05 19:14:00,
2013-06-05 15:19:00,72.8,62.5,29.95,ESE,109,8.0,15.0,70,0.00,,---,0.00,VWS V14.01,2013-06-05 19:19:00,
2013-06-05 15:24:00,72.7,63.5,29.95,East,94,6.0,15.0,73,0.00,,---,0.00,VWS V14.01,2013-06-05 19:24:00,
2013-06-05 15:29:00,72.5,63.4,29.96,ESE,117,12.0,15.0,73,0.00,,---,0.00,VWS V14.01,2013-06-05 19:29:00,
2013-06-05 15:34:00,72.2,63.5,29.95,East,89,5.0,13.0,74,0.00,,---,0.00,VWS V14.01,2013-06-05 19:34:00,
2013-06-05 15:39:00,71.7,63.0,29.95,ESE,122,10.0,14.0,74,0.00,,---,0.00,VWS V14.01,2013-06-05 19:39:00,
2013-06-05 15:44:00,71.4,63.1,29.95,SE,130,10.0,16.0,75,0.00,,---,0.00,VWS V14.01,2013-06-05 19:44:00,
2013-06-05 15:50:00,71.5,63.5,29.94,ESE,113,7.0,17.0,76,0.00,,---,0.00,VWS V14.01,2013-06-05 19:50:00,
2013-06-05 15:55:00,71.2,63.6,29.94,East,97,5.0,17.0,77,0.00,,---,0.00,VWS V14.01,2013-06-05 19:55:00,
2013-06-05 16:00:00,71.8,64.2,29.94,ESE,106,11.0,11.0,77,0.00,,---,0.00,VWS V14.01,2013-06-05 20:00:00,
2013-06-05 16:05:00,72.3,64.3,29.94,ESE,120,7.0,17.0,76,0.00,,---,0.00,VWS V14.01,2013-06-05 20:05:00,
2013-06-05 16:10:00,71.8,63.8,29.93,SE,124,3.0,17.0,76,0.00,,---,0.00,VWS V14.01,2013-06-05 20:10:00,
2013-06-05 16:15:00,71.4,63.1,29.93,SE,135,7.0,17.0,75,0.00,,---,0.00,VWS V14.01,2013-06-05 20:15:00,
2013-06-05 16:20:00,72.2,64.2,29.93,SE,131,3.0,17.0,76,0.00,,---,0.00,VWS V14.01,2013-06-05 20:20:00,
2013-06-05 16:25:00,72.8,64.0,29.93,SE,136,8.0,17.0,74,0.00,,---,0.00,VWS V14.01,2013-06-05 20:25:00,
2013-06-05 16:30:00,73.0,63.8,29.93,ENE,78,6.0,14.0,73,0.00,,---,0.00,VWS V14.01,2013-06-05 20:30:00,
2013-06-05 16:35:00,72.8,63.7,29.93,NE,52,9.0,16.0,73,0.00,,---,0.00,VWS V14.01,2013-06-05 20:35:00,
2013-06-05 16:40:00,72.7,63.5,29.92,SE,124,10.0,21.0,73,0.00,,---,0.00,VWS V14.01,2013-06-05 20:40:00,
2013-06-05 16:46:00,72.9,63.8,29.92,SE,136,11.0,21.0,73,0.00,,---,0.00,VWS V14.01,2013-06-05 20:46:00,
2013-06-05 16:51:00,72.6,63.5,29.92,SE,132,7.0,21.0,73,0.00,,---,0.00,VWS V14.01,2013-06-05 20:51:00,
2013-06-05 16:56:00,72.8,63.7,29.93,ESE,121,6.0,21.0,73,0.00,,---,0.00,VWS V14.01,2013-06-05 20:56:00,
2013-06-05 17:01:00,72.7,63.2,29.92,ESE,121,12.0,13.0,72,0.00,,---,0.00,VWS V14.01,2013-06-05 21:01:00,
2013-06-05 17:06:00,72.7,63.9,29.92,SSE,151,4.0,14.0,74,0.00,,---,0.00,VWS V14.01,2013-06-05 21:06:00,
2013-06-05 17:11:00,73.1,63.9,29.92,NE,53,7.0,14.0,73,0.00,,---,0.00,VWS V14.01,2013-06-05 21:11:00,
2013-06-05 17:16:00,72.8,62.9,29.92,ESE,110,6.0,18.0,71,0.00,,---,0.00,VWS V14.01,2013-06-05 21:16:00,
2013-06-05 17:22:00,73.3,62.9,29.92,ESE,120,7.0,18.0,70,0.00,,---,0.00,VWS V14.01,2013-06-05 21:22:00,
2013-06-05 17:27:00,73.4,63.0,29.92,SE,127,12.0,18.0,70,0.00,,---,0.00,VWS V14.01,2013-06-05 21:27:00,
2013-06-05 17:32:00,72.7,63.2,29.92,SSE,159,6.0,14.0,72,0.00,,---,0.00,VWS V14.01,2013-06-05 21:32:00,
2013-06-05 17:37:00,72.3,63.6,29.92,ENE,78,7.0,16.0,74,0.00,,---,0.00,VWS V14.01,2013-06-05 21:37:00,
2013-06-05 17:42:00,71.5,62.4,29.92,ENE,77,5.0,16.0,73,0.00,,---,0.00,VWS V14.01,2013-06-05 21:42:00,
2013-06-05 17:47:00,70.4,62.5,29.92,ESE,115,6.0,16.0,76,0.00,,---,0.00,VWS V14.01,2013-06-05 21:47:00,
2013-06-05 17:52:00,69.8,62.3,29.92,East,101,10.0,16.0,77,0.00,,---,0.00,VWS V14.01,2013-06-05 21:52:00,
2013-06-05 17:57:00,69.5,62.3,29.92,East,91,3.0,16.0,78,0.00,,---,0.00,VWS V14.01,2013-06-05 21:57:00,
2013-06-05 18:02:00,69.4,62.2,29.92,ESE,117,7.0,11.0,78,0.00,,---,0.00,VWS V14.01,2013-06-05 22:02:00,
2013-06-05 18:07:00,69.3,62.2,29.92,NE,44,9.0,15.0,78,0.00,,---,0.00,VWS V14.01,2013-06-05 22:07:00,
2013-06-05 18:12:00,69.6,62.4,29.92,SE,139,7.0,15.0,78,0.00,,---,0.00,VWS V14.01,2013-06-05 22:12:00,
2013-06-05 18:18:00,69.8,62.3,29.91,ENE,61,11.0,21.0,77,0.00,,---,0.00,VWS V14.01,2013-06-05 22:18:00,
2013-06-05 18:23:00,69.8,62.3,29.91,ESE,113,7.0,21.0,77,0.00,,---,0.00,VWS V14.01,2013-06-05 22:23:00,
2013-06-05 18:28:00,69.8,62.3,29.91,ESE,120,12.0,21.0,77,0.00,,---,0.00,VWS V14.01,2013-06-05 22:28:00,
2013-06-05 18:33:00,69.2,61.7,29.91,East,91,6.0,16.0,77,0.00,,---,0.00,VWS V14.01,2013-06-05 22:33:00,
2013-06-05 18:38:00,68.8,61.3,29.92,SSE,155,9.0,20.0,77,0.00,,---,0.00,VWS V14.01,2013-06-05 22:38:00,
2013-06-05 18:43:00,68.5,61.4,29.91,SSE,148,7.0,21.0,78,0.00,,---,0.00,VWS V14.01,2013-06-05 22:43:00,
2013-06-05 18:48:00,68.2,61.5,29.92,ESE,110,8.0,21.0,79,0.00,,---,0.00,VWS V14.01,2013-06-05 22:48:00,
2013-06-05 18:53:00,68.0,61.6,29.91,SE,132,6.0,21.0,80,0.00,,---,0.00,VWS V14.01,2013-06-05 22:53:00,
2013-06-05 18:58:00,67.7,61.3,29.91,ESE,123,11.0,21.0,80,0.00,,---,0.00,VWS V14.01,2013-06-05 22:58:00,
2013-06-05 19:03:00,67.4,61.0,29.91,SE,137,11.0,21.0,80,0.00,,---,0.00,VWS V14.01,2013-06-05 23:03:00,
2013-06-05 19:08:00,67.2,61.2,29.91,SE,134,6.0,21.0,81,0.00,,---,0.00,VWS V14.01,2013-06-05 23:08:00,
2013-06-05 19:13:00,67.1,61.1,29.92,East,92,11.0,21.0,81,0.00,,---,0.00,VWS V14.01,2013-06-05 23:13:00,
2013-06-05 19:18:00,66.9,61.2,29.91,ESE,105,6.0,21.0,82,0.00,,---,0.00,VWS V14.01,2013-06-05 23:18:00,
2013-06-05 19:24:00,66.8,61.1,29.92,East,90,17.0,22.0,82,0.00,,---,0.00,VWS V14.01,2013-06-05 23:24:00,
2013-06-05 19:29:00,66.4,61.1,29.92,ESE,115,8.0,22.0,83,0.00,,---,0.00,VWS V14.01,2013-06-05 23:29:00,
2013-06-05 19:34:00,66.1,60.8,29.92,ESE,104,13.0,18.0,83,0.00,,---,0.00,VWS V14.01,2013-06-05 23:34:00,
2013-06-05 19:39:00,65.8,60.8,29.92,ENE,75,8.0,20.0,84,0.00,,---,0.00,VWS V14.01,2013-06-05 23:39:00,
2013-06-05 19:44:00,65.5,60.5,29.92,SE,134,10.0,20.0,84,0.00,,---,0.00,VWS V14.01,2013-06-05 23:44:00,
2013-06-05 19:49:00,65.2,60.6,29.92,SE,141,7.0,20.0,85,0.00,,---,0.00,VWS V14.01,2013-06-05 23:49:00,
2013-06-05 19:54:00,65.0,60.4,29.92,East,99,9.0,20.0,85,0.00,,---,0.00,VWS V14.01,2013-06-05 23:54:00,
2013-06-05 19:59:00,64.7,60.1,29.91,WSW,256,11.0,20.0,85,0.00,,---,0.00,VWS V14.01,2013-06-05 23:59:00,
2013-06-05 20:04:00,64.3,59.7,29.91,ENE,59,5.0,17.0,85,0.00,,---,0.00,VWS V14.01,2013-06-06 00:04:00,
2013-06-05 20:09:00,64.0,59.4,29.91,SSE,148,6.0,17.0,85,0.00,,---,0.00,VWS V14.01,2013-06-06 00:09:00,
2013-06-05 20:14:00,63.8,59.5,29.91,SE,124,13.0,17.0,86,0.00,,---,0.00,VWS V14.01,2013-06-06 00:14:00,
2013-06-05 20:19:00,63.5,59.2,29.92,SE,132,14.0,17.0,86,0.00,,---,0.00,VWS V14.01,2013-06-06 00:19:00,
2013-06-05 20:25:00,63.3,59.4,29.92,SE,136,9.0,20.0,87,0.00,,---,0.00,VWS V14.01,2013-06-06 00:25:00,
2013-06-05 20:30:00,63.1,59.2,29.92,ESE,116,6.0,11.0,87,0.00,,---,0.00,VWS V14.01,2013-06-06 00:30:00,
2013-06-05 20:35:00,63.0,59.1,29.92,ESE,113,11.0,16.0,87,0.00,,---,0.00,VWS V14.01,2013-06-06 00:35:00,
2013-06-05 20:40:00,63.0,59.4,29.92,ESE,116,6.0,17.0,88,0.00,,---,0.00,VWS V14.01,2013-06-06 00:40:00,
2013-06-05 20:45:00,62.9,59.3,29.93,ESE,107,6.0,17.0,88,0.00,,---,0.00,VWS V14.01,2013-06-06 00:45:00,
2013-06-05 20:50:00,62.8,59.2,29.93,ESE,118,14.0,17.0,88,0.00,,---,0.00,VWS V14.01,2013-06-06 00:50:00,
2013-06-05 20:55:00,62.7,59.1,29.93,SSE,150,5.0,17.0,88,0.00,,---,0.00,VWS V14.01,2013-06-06 00:55:00,
2013-06-05 21:00:00,62.6,59.3,29.93,ESE,119,11.0,15.0,89,0.00,,---,0.00,VWS V14.01,2013-06-06 01:00:00,
2013-06-05 21:05:00,62.6,59.3,29.93,SE,138,8.0,16.0,89,0.00,,---,0.00,VWS V14.01,2013-06-06 01:05:00,
2013-06-05 21:10:00,62.5,59.2,29.94,ESE,113,15.0,18.0,89,0.00,,---,0.00,VWS V14.01,2013-06-06 01:10:00,
2013-06-05 21:15:00,62.5,59.2,29.94,East,79,6.0,18.0,89,0.00,,---,0.00,VWS V14.01,2013-06-06 01:15:00,
2013-06-05 21:20:00,62.4,59.1,29.93,ESE,113,8.0,18.0,89,0.00,,---,0.00,VWS V14.01,2013-06-06 01:20:00,
2013-06-05 21:26:00,62.4,59.1,29.94,ESE,115,6.0,18.0,89,0.00,,---,0.00,VWS V14.01,2013-06-06 01:26:00,
2013-06-05 21:31:00,62.3,59.3,29.94,ESE,110,8.0,11.0,90,0.00,,---,0.00,VWS V14.01,2013-06-06 01:31:00,
2013-06-05 21:36:00,62.3,59.3,29.94,ESE,110,12.0,15.0,90,0.00,,---,0.00,VWS V14.01,2013-06-06 01:36:00,
2013-06-05 21:41:00,62.3,59.3,29.94,SE,131,9.0,15.0,90,0.00,,---,0.00,VWS V14.01,2013-06-06 01:41:00,
2013-06-05 21:46:00,62.2,59.2,29.94,ESE,113,8.0,15.0,90,0.00,,---,0.00,VWS V14.01,2013-06-06 01:46:00,
2013-06-05 21:51:00,62.1,59.1,29.94,ESE,108,7.0,15.0,90,0.00,,---,0.00,VWS V14.01,2013-06-06 01:51:00,
2013-06-05 21:56:00,62.1,59.1,29.94,East,84,6.0,15.0,90,0.00,,---,0.00,VWS V14.01,2013-06-06 01:56:00,
2013-06-05 22:01:00,62.1,59.5,29.95,ESE,120,9.0,11.0,91,0.00,,---,0.00,VWS V14.01,2013-06-06 02:01:00,
2013-06-05 22:06:00,62.1,59.5,29.95,SE,125,7.0,14.0,91,0.00,,---,0.00,VWS V14.01,2013-06-06 02:06:00,
2013-06-05 22:11:00,62.1,59.5,29.95,SE,124,13.0,15.0,91,0.00,,---,0.00,VWS V14.01,2013-06-06 02:11:00,
2013-06-05 22:16:00,62.2,59.5,29.95,SE,132,9.0,15.0,91,0.00,,---,0.00,VWS V14.01,2013-06-06 02:16:00,
2013-06-05 22:21:00,62.1,59.5,29.96,ESE,115,9.0,15.0,91,0.00,,---,0.00,VWS V14.01,2013-06-06 02:21:00,
2013-06-05 22:26:00,62.2,59.5,29.95,SSE,163,8.0,15.0,91,0.00,,---,0.00,VWS V14.01,2013-06-06 02:26:00,
2013-06-05 22:31:00,62.2,59.5,29.96,ESE,106,5.0,12.0,91,0.00,,---,0.00,VWS V14.01,2013-06-06 02:31:00,
2013-06-05 22:36:00,62.2,59.5,29.96,East,89,12.0,13.0,91,0.00,,---,0.00,VWS V14.01,2013-06-06 02:36:00,
2013-06-05 22:41:00,62.2,59.5,29.96,SE,126,5.0,13.0,91,0.00,,---,0.00,VWS V14.01,2013-06-06 02:41:00,
2013-06-05 22:46:00,62.2,59.5,29.96,SE,128,5.0,13.0,91,0.00,,---,0.00,VWS V14.01,2013-06-06 02:46:00,
2013-06-05 22:51:00,62.2,59.5,29.96,ESE,110,5.0,13.0,91,0.00,,---,0.00,VWS V14.01,2013-06-06 02:51:00,
2013-06-05 22:56:00,62.3,59.6,29.96,SE,130,6.0,13.0,91,0.00,,---,0.00,VWS V14.01,2013-06-06 02:56:00,
2013-06-05 23:02:00,62.2,59.5,29.96,ENE,65,3.0,6.0,91,0.00,,---,0.00,VWS V14.01,2013-06-06 03:02:00,
2013-06-05 23:07:00,62.2,59.5,29.96,SE,124,2.0,8.0,91,0.00,,---,0.00,VWS V14.01,2013-06-06 03:07:00,
2013-06-05 23:12:00,62.2,59.5,29.96,ESE,122,0.0,8.0,91,0.00,,---,0.00,VWS V14.01,2013-06-06 03:12:00,
2013-06-05 23:17:00,62.2,59.5,29.96,ESE,120,1.0,8.0,91,0.00,,---,0.00,VWS V14.01,2013-06-06 03:17:00,
2013-06-05 23:22:00,62.2,59.5,29.96,ESE,117,3.0,8.0,91,0.00,,---,0.00,VWS V14.01,2013-06-06 03:22:00,
2013-06-05 23:27:00,62.2,59.5,29.96,East,100,1.0,8.0,91,0.00,,---,0.00,VWS V14.01,2013-06-06 03:27:00,
2013-06-05 23:32:00,62.3,59.6,29.96,ESE,110,6.0,6.0,91,0.00,,---,0.00,VWS V14.01,2013-06-06 03:32:00,
2013-06-05 23:37:00,62.2,59.5,29.96,SE,129,3.0,6.0,91,0.00,,---,0.00,VWS V14.01,2013-06-06 03:37:00,
2013-06-05 23:42:00,62.1,59.8,29.96,ESE,107,3.0,6.0,92,0.00,,---,0.00,VWS V14.01,2013-06-06 03:42:00,
2013-06-05 23:47:00,62.0,59.7,29.96,ESE,110,6.0,6.0,92,0.00,,---,0.00,VWS V14.01,2013-06-06 03:47:00,
2013-06-05 23:52:00,61.9,59.5,29.96,ESE,113,7.0,7.0,92,0.00,,---,0.00,VWS V14.01,2013-06-06 03:52:00,
2013-06-05 23:57:00,61.9,59.5,29.95,ESE,108,4.0,7.0,92,0.00,,---,0.00,VWS V14.01,2013-06-06 03:57:00,